Time,TemperatureF,DewpointF,PressureIn,WindDirection,WindDirectionDegrees,WindSpeedMPH,WindSpeedGustMPH,Humidity,HourlyPrecipIn,Conditions,Clouds,dailyrainin,SoftwareType,DateUTC
2013-04-28 00:12:00,71.6,31.0,29.94,SW,219,7.0,-999.0,22,-99.99,,,0.00,weatherlink.com 1.10,2013-04-28 07:12:00,
2013-04-28 00:28:00,70.8,31.0,29.93,WSW,246,5.0,-999.0,23,-99.99,,,0.00,weatherlink.com 1.10,2013-04-28 07:28:00,
2013-04-28 00:43:00,70.8,31.0,29.93,WSW,252,2.0,-999.0,23,-99.99,,,0.00,weatherlink.com 1.10,2013-04-28 07:43:00,
2013-04-28 00:58:00,70.9,32.0,29.93,WSW,248,3.0,-999.0,24,-99.99,,,0.00,weatherlink.com 1.10,2013-04-28 07:58:00,
2013-04-28 01:13:00,70.3,33.0,29.93,SSW,213,5.0,-999.0,25,-99.99,,,0.00,weatherlink.com 1.10,2013-04-28 08:13:00,
2013-04-28 01:28:00,69.9,32.0,29.92,WSW,239,4.0,-999.0,25,-99.99,,,0.00,weatherlink.com 1.10,2013-04-28 08:28:00,
2013-04-28 01:43:00,69.8,32.0,29.91,WSW,250,2.0,-999.0,25,-99.99,,,0.00,weatherlink.com 1.10,2013-04-28 08:43:00,
2013-04-28 01:58:00,69.4,33.0,29.91,SW,230,0.0,-999.0,26,-99.99,,,0.00,weatherlink.com 1.10,2013-04-28 08:58:00,
2013-04-28 02:13:00,69.3,33.0,29.92,WSW,242,3.0,-999.0,26,-99.99,,,0.00,weatherlink.com 1.10,2013-04-28 09:13:00,
2013-04-28 02:28:00,69.3,33.0,29.91,SW,222,2.0,-999.0,26,-99.99,,,0.00,weatherlink.com 1.10,2013-04-28 09:28:00,
2013-04-28 02:43:00,69.3,34.0,29.91,WSW,241,1.0,-999.0,27,-99.99,,,0.00,weatherlink.com 1.10,2013-04-28 09:43:00,
2013-04-28 02:58:00,69.1,35.0,29.91,WSW,240,2.0,-999.0,28,-99.99,,,0.00,weatherlink.com 1.10,2013-04-28 09:58:00,
2013-04-28 03:13:00,68.3,34.0,29.91,SSW,212,0.0,-999.0,28,-99.99,,,0.00,weatherlink.com 1.10,2013-04-28 10:13:00,
2013-04-28 03:29:00,67.8,34.0,29.90,SSW,213,0.0,-999.0,29,-99.99,,,0.00,weatherlink.com 1.10,2013-04-28 10:29:00,
2013-04-28 03:44:00,67.9,35.0,29.90,SSW,213,0.0,-999.0,30,-99.99,,,0.00,weatherlink.com 1.10,2013-04-28 10:44:00,
2013-04-28 03:59:00,67.6,36.0,29.90,SW,217,1.0,-999.0,31,-99.99,,,0.00,weatherlink.com 1.10,2013-04-28 10:59:00,
2013-04-28 04:14:00,67.4,36.0,29.90,SW,218,0.0,-999.0,31,-99.99,,,0.00,weatherlink.com 1.10,2013-04-28 11:14:00,
2013-04-28 04:29:00,66.9,35.0,29.90,SW,218,0.0,-999.0,31,-99.99,,,0.00,weatherlink.com 1.10,2013-04-28 11:29:00,
2013-04-28 04:44:00,66.6,36.0,29.91,SW,218,0.0,-999.0,32,-99.99,,,0.00,weatherlink.com 1.10,2013-04-28 11:44:00,
2013-04-28 04:59:00,66.1,35.0,29.90,SW,218,0.0,-999.0,32,-99.99,,,0.00,weatherlink.com 1.10,2013-04-28 11:59:00,
2013-04-28 05:14:00,65.6,36.0,29.91,SSW,201,3.0,-999.0,33,-99.99,,,0.00,weatherlink.com 1.10,2013-04-28 12:14:00,
2013-04-28 05:29:00,66.0,36.0,29.91,SSW,201,0.0,-999.0,33,-99.99,,,0.00,weatherlink.com 1.10,2013-04-28 12:29:00,
2013-04-28 05:44:00,65.6,36.0,29.91,SSW,205,0.0,-999.0,34,-99.99,,,0.00,weatherlink.com 1.10,2013-04-28 12:44:00,
2013-04-28 05:59:00,65.8,37.0,29.91,South,184,0.0,-999.0,35,-99.99,,,0.00,weatherlink.com 1.10,2013-04-28 12:59:00,
2013-04-28 06:14:00,65.6,37.0,29.91,SW,227,3.0,-999.0,35,-99.99,,,0.00,weatherlink.com 1.10,2013-04-28 13:14:00,
2013-04-28 06:30:00,64.8,38.0,29.92,SSW,211,0.0,-999.0,37,-99.99,,,0.00,weatherlink.com 1.10,2013-04-28 13:30:00,
2013-04-28 06:45:00,64.5,37.0,29.93,South,173,0.0,-999.0,37,-99.99,,,0.00,weatherlink.com 1.10,2013-04-28 13:45:00,
2013-04-28 07:00:00,65.3,38.0,29.93,South,174,0.0,-999.0,37,-99.99,,,0.00,weatherlink.com 1.10,2013-04-28 14:00:00,
2013-04-28 07:15:00,66.1,38.0,29.94,South,180,0.0,-999.0,35,-99.99,,,0.00,weatherlink.com 1.10,2013-04-28 14:15:00,
2013-04-28 07:30:00,66.9,38.0,29.93,South,188,0.0,-999.0,34,-99.99,,,0.00,weatherlink.com 1.10,2013-04-28 14:30:00,
2013-04-28 07:45:00,68.4,36.0,29.94,South,187,0.0,-999.0,31,-99.99,,,0.00,weatherlink.com 1.10,2013-04-28 14:45:00,
2013-04-28 08:00:00,70.9,36.0,29.93,SW,215,4.0,-999.0,28,-99.99,,,0.00,weatherlink.com 1.10,2013-04-28 15:00:00,
2013-04-28 08:15:00,72.5,38.0,29.93,SW,232,3.0,-999.0,28,-99.99,,,0.00,weatherlink.com 1.10,2013-04-28 15:15:00,
2013-04-28 08:30:00,74.0,38.0,29.93,SW,227,3.0,-999.0,27,-99.99,,,0.00,weatherlink.com 1.10,2013-04-28 15:30:00,
2013-04-28 08:45:00,76.1,38.0,29.92,SW,219,0.0,-999.0,25,-99.99,,,0.00,weatherlink.com 1.10,2013-04-28 15:45:00,
2013-04-28 09:00:00,78.1,36.0,29.91,South,184,5.0,-999.0,22,-99.99,,,0.00,weatherlink.com 1.10,2013-04-28 16:00:00,
2013-04-28 09:15:00,79.4,35.0,29.90,SW,224,2.0,-999.0,20,-99.99,,,0.00,weatherlink.com 1.10,2013-04-28 16:15:00,
2013-04-28 09:31:00,80.5,35.0,29.90,SW,222,3.0,-999.0,19,-99.99,,,0.00,weatherlink.com 1.10,2013-04-28 16:31:00,
2013-04-28 09:46:00,82.6,34.0,29.89,SSW,202,7.0,-999.0,17,-99.99,,,0.00,weatherlink.com 1.10,2013-04-28 16:46:00,
2013-04-28 10:01:00,83.4,34.0,29.89,South,177,6.0,-999.0,17,-99.99,,,0.00,weatherlink.com 1.10,2013-04-28 17:01:00,
2013-04-28 10:16:00,84.5,35.0,29.89,SW,236,4.0,-999.0,17,-99.99,,,0.00,weatherlink.com 1.10,2013-04-28 17:16:00,
2013-04-28 10:31:00,84.1,33.0,29.89,SSE,163,1.0,-999.0,16,-99.99,,,0.00,weatherlink.com 1.10,2013-04-28 17:31:00,
2013-04-28 10:46:00,85.3,34.0,29.88,South,190,0.0,-999.0,16,-99.99,,,0.00,weatherlink.com 1.10,2013-04-28 17:46:00,
2013-04-28 11:01:00,87.2,32.0,29.88,SSE,147,0.0,-999.0,14,-99.99,,,0.00,weatherlink.com 1.10,2013-04-28 18:01:00,
2013-04-28 11:16:00,87.2,32.0,29.88,WNW,284,1.0,-999.0,14,-99.99,,,0.00,weatherlink.com 1.10,2013-04-28 18:16:00,
2013-04-28 11:31:00,86.3,33.0,29.88,South,171,0.0,-999.0,15,-99.99,,,0.00,weatherlink.com 1.10,2013-04-28 18:31:00,
2013-04-28 11:46:00,88.4,32.0,29.87,ESE,121,2.0,-999.0,13,-99.99,,,0.00,weatherlink.com 1.10,2013-04-28 18:46:00,
2013-04-28 12:02:00,89.7,33.0,29.86,NNE,12,4.0,-999.0,13,-99.99,,,0.00,weatherlink.com 1.10,2013-04-28 19:02:00,
2013-04-28 12:17:00,91.0,32.0,29.85,NE,41,0.0,-999.0,12,-99.99,,,0.00,weatherlink.com 1.10,2013-04-28 19:17:00,
2013-04-28 12:32:00,92.1,33.0,29.85,SSE,162,0.0,-999.0,12,-99.99,,,0.00,weatherlink.com 1.10,2013-04-28 19:32:00,
2013-04-28 12:47:00,93.2,29.0,29.83,SW,230,7.0,-999.0,10,-99.99,,,0.00,weatherlink.com 1.10,2013-04-28 19:47:00,
2013-04-28 13:02:00,92.5,28.0,29.83,South,183,11.0,-999.0,10,-99.99,,,0.00,weatherlink.com 1.10,2013-04-28 20:02:00,
2013-04-28 13:17:00,92.5,28.0,29.83,SE,128,0.0,-999.0,10,-99.99,,,0.00,weatherlink.com 1.10,2013-04-28 20:17:00,
2013-04-28 13:32:00,93.6,24.0,29.82,South,188,3.0,-999.0,8,-99.99,,,0.00,weatherlink.com 1.10,2013-04-28 20:32:00,
2013-04-28 13:47:00,93.4,20.0,29.82,ENE,78,6.0,-999.0,7,-99.99,,,0.00,weatherlink.com 1.10,2013-04-28 20:47:00,
2013-04-28 14:02:00,93.2,20.0,29.81,ESE,113,3.0,-999.0,7,-99.99,,,0.00,weatherlink.com 1.10,2013-04-28 21:02:00,
2013-04-28 14:17:00,93.8,13.0,29.80,SSE,161,5.0,-999.0,5,-99.99,,,0.00,weatherlink.com 1.10,2013-04-28 21:17:00,
2013-04-28 14:32:00,93.4,17.0,29.80,ESE,116,4.0,-999.0,6,-99.99,,,0.00,weatherlink.com 1.10,2013-04-28 21:32:00,
2013-04-28 14:48:00,94.0,21.0,29.79,SE,128,10.0,-999.0,7,-99.99,,,0.00,weatherlink.com 1.10,2013-04-28 21:48:00,
2013-04-28 15:03:00,95.4,18.0,29.78,SSE,153,0.0,-999.0,6,-99.99,,,0.00,weatherlink.com 1.10,2013-04-28 22:03:00,
2013-04-28 15:18:00,94.7,21.0,29.77,South,186,13.0,-999.0,7,-99.99,,,0.00,weatherlink.com 1.10,2013-04-28 22:18:00,
2013-04-28 15:33:00,94.5,21.0,29.77,South,188,12.0,-999.0,7,-99.99,,,0.00,weatherlink.com 1.10,2013-04-28 22:33:00,
2013-04-28 15:48:00,95.4,28.0,29.77,West,271,13.0,-999.0,9,-99.99,,,0.00,weatherlink.com 1.10,2013-04-28 22:48:00,
2013-04-28 16:03:00,93.6,27.0,29.77,West,261,7.0,-999.0,9,-99.99,,,0.00,weatherlink.com 1.10,2013-04-28 23:03:00,
2013-04-28 16:18:00,94.5,27.0,29.77,WSW,256,12.0,-999.0,9,-99.99,,,0.00,weatherlink.com 1.10,2013-04-28 23:18:00,
2013-04-28 16:33:00,94.0,27.0,29.77,West,269,15.0,-999.0,9,-99.99,,,0.00,weatherlink.com 1.10,2013-04-28 23:33:00,
2013-04-28 16:48:00,93.2,29.0,29.78,NNW,329,11.0,-999.0,10,-99.99,,,0.00,weatherlink.com 1.10,2013-04-28 23:48:00,
2013-04-28 17:03:00,92.5,33.0,29.77,West,273,7.0,-999.0,12,-99.99,,,0.00,weatherlink.com 1.10,2013-04-29 00:03:00,
2013-04-28 17:18:00,92.7,23.0,29.78,WSW,246,10.0,-999.0,8,-99.99,,,0.00,weatherlink.com 1.10,2013-04-29 00:18:00,
2013-04-28 17:33:00,91.2,25.0,29.78,West,259,10.0,-999.0,9,-99.99,,,0.00,weatherlink.com 1.10,2013-04-29 00:33:00,
2013-04-28 17:49:00,90.1,27.0,29.78,West,263,18.0,-999.0,10,-99.99,,,0.00,weatherlink.com 1.10,2013-04-29 00:49:00,
2013-04-28 18:04:00,89.5,28.0,29.79,West,265,12.0,-999.0,11,-99.99,,,0.00,weatherlink.com 1.10,2013-04-29 01:04:00,
2013-04-28 18:19:00,88.2,31.0,29.79,West,274,8.0,-999.0,13,-99.99,,,0.00,weatherlink.com 1.10,2013-04-29 01:19:00,
2013-04-28 18:34:00,87.2,29.0,29.80,West,263,10.0,-999.0,12,-99.99,,,0.00,weatherlink.com 1.10,2013-04-29 01:34:00,
2013-04-28 18:49:00,86.1,36.0,29.80,WSW,257,2.0,-999.0,17,-99.99,,,0.00,weatherlink.com 1.10,2013-04-29 01:49:00,
2013-04-28 19:04:00,84.5,37.0,29.81,WNW,296,14.0,-999.0,18,-99.99,,,0.00,weatherlink.com 1.10,2013-04-29 02:04:00,
2013-04-28 19:19:00,82.6,36.0,29.80,West,271,9.0,-999.0,19,-99.99,,,0.00,weatherlink.com 1.10,2013-04-29 02:19:00,
2013-04-28 19:34:00,81.4,34.0,29.80,WNW,293,0.0,-999.0,18,-99.99,,,0.00,weatherlink.com 1.10,2013-04-29 02:34:00,
2013-04-28 19:49:00,79.9,34.0,29.81,WSW,246,0.0,-999.0,19,-99.99,,,0.00,weatherlink.com 1.10,2013-04-29 02:49:00,
2013-04-28 20:04:00,78.5,34.0,29.81,West,259,15.0,-999.0,20,-99.99,,,0.00,weatherlink.com 1.10,2013-04-29 03:04:00,
2013-04-28 20:19:00,77.0,34.0,29.81,West,267,9.0,-999.0,21,-99.99,,,0.00,weatherlink.com 1.10,2013-04-29 03:19:00,
2013-04-28 20:34:00,76.7,34.0,29.81,WNW,282,13.0,-999.0,21,-99.99,,,0.00,weatherlink.com 1.10,2013-04-29 03:34:00,
2013-04-28 20:49:00,76.3,34.0,29.82,West,273,13.0,-999.0,21,-99.99,,,0.00,weatherlink.com 1.10,2013-04-29 03:49:00,
2013-04-28 21:04:00,76.0,33.0,29.82,West,272,10.0,-999.0,21,-99.99,,,0.00,weatherlink.com 1.10,2013-04-29 04:04:00,
2013-04-28 21:20:00,75.4,32.0,29.81,WSW,242,12.0,-999.0,20,-99.99,,,0.00,weatherlink.com 1.10,2013-04-29 04:20:00,
2013-04-28 21:35:00,75.3,32.0,29.81,West,263,10.0,-999.0,20,-99.99,,,0.00,weatherlink.com 1.10,2013-04-29 04:35:00,
2013-04-28 21:50:00,75.3,32.0,29.81,West,261,7.0,-999.0,20,-99.99,,,0.00,weatherlink.com 1.10,2013-04-29 04:50:00,
2013-04-28 22:05:00,74.4,31.0,29.82,West,261,6.0,-999.0,20,-99.99,,,0.00,weatherlink.com 1.10,2013-04-29 05:05:00,
2013-04-28 22:20:00,73.9,30.0,29.81,WSW,251,7.0,-999.0,20,-99.99,,,0.00,weatherlink.com 1.10,2013-04-29 05:20:00,
2013-04-28 22:35:00,73.0,31.0,29.81,West,260,0.0,-999.0,21,-99.99,,,0.00,weatherlink.com 1.10,2013-04-29 05:35:00,
2013-04-28 22:50:00,72.1,30.0,29.81,West,263,0.0,-999.0,21,-99.99,,,0.00,weatherlink.com 1.10,2013-04-29 05:50:00,
2013-04-28 23:05:00,72.1,29.0,29.81,SW,214,10.0,-999.0,20,-99.99,,,0.00,weatherlink.com 1.10,2013-04-29 06:05:00,
2013-04-28 23:20:00,71.5,29.0,29.80,WSW,246,1.0,-999.0,21,-99.99,,,0.00,weatherlink.com 1.10,2013-04-29 06:20:00,
2013-04-28 23:35:00,71.1,29.0,29.80,SW,230,2.0,-999.0,21,-99.99,,,0.00,weatherlink.com 1.10,2013-04-29 06:35:00,
2013-04-28 23:50:00,70.4,27.0,29.80,SW,234,1.0,-999.0,20,-99.99,,,0.00,weatherlink.com 1.10,2013-04-29 06:50:00,